TimeMDT,TemperatureF,Dew PointF,Humidity,Sea Level PressureIn,VisibilityMPH,Wind Direction,Wind SpeedMPH,Gust SpeedMPH,PrecipitationIn,Events,Conditions,WindDirDegrees,DateUTC
12:15 AM,47.5,19.0,32,30.13,10.0,Calm,Calm,-,N/A,,Clear,0,2012-10-06 06:15:00
12:55 AM,45.1,19.0,35,30.13,10.0,Calm,Calm,-,N/A,,Clear,0,2012-10-06 06:55:00
1:15 AM,44.6,19.2,36,30.13,10.0,Calm,Calm,-,N/A,,Clear,0,2012-10-06 07:15:00
1:35 AM,47.1,18.1,32,30.13,10.0,Calm,Calm,-,N/A,,Clear,0,2012-10-06 07:35:00
1:55 AM,46.2,18.1,33,30.13,10.0,Calm,Calm,-,N/A,,Scattered Clouds,0,2012-10-06 07:55:00
2:15 AM,44.1,20.1,39,30.13,10.0,Calm,Calm,-,N/A,,Scattered Clouds,0,2012-10-06 08:15:00
2:35 AM,44.4,18.7,36,30.12,10.0,Calm,Calm,-,N/A,,Clear,0,2012-10-06 08:35:00
2:55 AM,45.5,17.8,33,30.12,10.0,Calm,Calm,-,N/A,,Clear,0,2012-10-06 08:55:00
3:35 AM,42.8,18.9,38,30.11,10.0,Calm,Calm,-,N/A,,Clear,0,2012-10-06 09:35:00
3:55 AM,42.4,19.9,41,30.11,10.0,Calm,Calm,-,N/A,,Clear,0,2012-10-06 09:55:00
4:15 AM,43.7,18.9,37,30.11,10.0,Calm,Calm,-,N/A,,Clear,0,2012-10-06 10:15:00
4:35 AM,42.3,21.0,43,30.11,10.0,Calm,Calm,-,N/A,,Clear,0,2012-10-06 10:35:00
4:55 AM,41.9,20.3,42,30.11,10.0,NNE,4.6,-,N/A,,Clear,20,2012-10-06 10:55:00
5:15 AM,42.8,20.1,40,30.12,10.0,NE,3.5,-,N/A,,Clear,40,2012-10-06 11:15:00
5:35 AM,43.3,19.8,39,30.12,10.0,Calm,Calm,-,N/A,,Clear,0,2012-10-06 11:35:00
5:55 AM,42.8,19.4,39,30.12,10.0,NE,5.8,-,N/A,,Clear,40,2012-10-06 11:55:00
6:15 AM,42.8,19.2,39,30.12,10.0,NE,4.6,-,N/A,,Clear,40,2012-10-06 12:15:00
6:35 AM,40.5,19.9,44,30.13,10.0,NE,3.5,-,N/A,,Clear,40,2012-10-06 12:35:00
6:55 AM,39.7,20.5,46,30.13,10.0,Calm,Calm,-,N/A,,Clear,0,2012-10-06 12:55:00
7:15 AM,40.3,20.3,45,30.13,10.0,Calm,Calm,-,N/A,,Clear,0,2012-10-06 13:15:00
7:35 AM,38.7,21.2,50,30.14,10.0,Calm,Calm,-,N/A,,Clear,0,2012-10-06 13:35:00
7:55 AM,41.7,21.6,45,30.14,10.0,Calm,Calm,-,N/A,,Clear,0,2012-10-06 13:55:00
8:15 AM,43.2,20.7,41,30.14,10.0,NE,5.8,-,N/A,,Clear,40,2012-10-06 14:15:00
8:35 AM,45.0,20.7,38,30.15,10.0,NE,3.5,-,N/A,,Clear,40,2012-10-06 14:35:00
8:55 AM,48.2,19.8,32,30.15,10.0,NE,3.5,-,N/A,,Clear,40,2012-10-06 14:55:00
9:15 AM,49.5,21.2,33,30.15,10.0,East,4.6,-,N/A,,Clear,100,2012-10-06 15:15:00
9:35 AM,51.6,19.6,28,30.15,10.0,Calm,Calm,-,N/A,,Clear,0,2012-10-06 15:35:00
9:55 AM,50.7,19.6,29,30.15,10.0,NE,3.5,-,N/A,,Clear,50,2012-10-06 15:55:00
10:15 AM,51.4,19.4,28,30.15,10.0,Calm,Calm,-,N/A,,Clear,0,2012-10-06 16:15:00
10:35 AM,53.8,19.4,26,30.14,10.0,Calm,Calm,-,N/A,,Clear,0,2012-10-06 16:35:00
10:55 AM,57.6,16.9,20,30.13,10.0,South,9.2,-,N/A,,Clear,190,2012-10-06 16:55:00
11:15 AM,60.3,12.9,16,30.11,10.0,SW,16.1,23.0,N/A,,Clear,230,2012-10-06 17:15:00
11:35 AM,61.0,11.8,15,30.11,10.0,WSW,15.0,25.3,N/A,,Clear,240,2012-10-06 17:35:00
11:55 AM,61.2,12.0,15,30.10,10.0,SW,16.1,24.2,N/A,,Clear,230,2012-10-06 17:55:00
12:15 PM,62.2,7.0,11,30.09,10.0,SSW,19.6,27.6,N/A,,Clear,210,2012-10-06 18:15:00
12:35 PM,62.8,8.1,12,30.09,10.0,SW,16.1,27.6,N/A,,Clear,220,2012-10-06 18:35:00
12:55 PM,63.7,9.0,12,30.07,10.0,WSW,16.1,28.8,N/A,,Clear,240,2012-10-06 18:55:00
1:15 PM,64.6,5.5,10,30.07,10.0,WSW,23.0,28.8,N/A,,Clear,250,2012-10-06 19:15:00
1:35 PM,64.9,3.7,9,30.05,10.0,SW,23.0,31.1,N/A,,Clear,230,2012-10-06 19:35:00
1:55 PM,64.8,1.2,8,30.04,10.0,SW,24.2,32.2,N/A,,Clear,230,2012-10-06 19:55:00
2:15 PM,64.8,-2.2,7,30.03,10.0,SW,26.5,34.5,N/A,,Clear,230,2012-10-06 20:15:00
2:35 PM,66.2,-2.2,6,30.03,10.0,WSW,18.4,28.8,N/A,,Clear,240,2012-10-06 20:35:00
2:55 PM,65.5,-2.7,6,30.03,10.0,SW,20.7,27.6,N/A,,Clear,230,2012-10-06 20:55:00
3:15 PM,65.5,-3.1,6,30.03,10.0,WSW,18.4,32.2,N/A,,Clear,240,2012-10-06 21:15:00
3:35 PM,65.8,-4.4,6,30.02,10.0,WSW,20.7,34.5,N/A,,Clear,240,2012-10-06 21:35:00
3:55 PM,64.8,-4.4,6,30.02,10.0,SW,25.3,35.7,N/A,,Clear,220,2012-10-06 21:55:00
4:15 PM,64.6,-5.6,6,30.02,10.0,SW,21.9,28.8,N/A,,Clear,230,2012-10-06 22:15:00
4:35 PM,64.0,-7.2,6,30.02,10.0,SW,24.2,31.1,N/A,,Clear,230,2012-10-06 22:35:00
5:15 PM,63.0,-6.2,6,30.02,10.0,SW,16.1,31.1,N/A,,Clear,230,2012-10-06 23:15:00
5:35 PM,62.6,-6.5,6,30.02,10.0,SW,18.4,28.8,N/A,Thunderstorm,Clear,220,2012-10-06 23:35:00
5:55 PM,61.0,-4.0,7,30.03,10.0,SW,19.6,31.1,N/A,,Clear,230,2012-10-06 23:55:00
6:15 PM,59.9,-2.9,8,30.04,10.0,SW,15.0,25.3,N/A,,Clear,230,2012-10-07 00:15:00
6:35 PM,59.0,-4.2,8,30.04,10.0,SW,18.4,24.2,N/A,,Clear,230,2012-10-07 00:35:00
6:55 PM,57.6,-4.9,8,30.05,10.0,SW,16.1,21.9,N/A,,Clear,230,2012-10-07 00:55:00
7:15 PM,56.5,-4.9,8,30.07,10.0,SW,12.7,-,N/A,,Clear,230,2012-10-07 01:15:00
7:35 PM,55.6,-4.9,8,30.07,10.0,SW,10.4,-,N/A,,Clear,230,2012-10-07 01:35:00
7:55 PM,54.7,-5.1,9,30.09,10.0,WSW,9.2,-,N/A,,Clear,240,2012-10-07 01:55:00
8:15 PM,52.7,-1.8,11,30.09,10.0,SW,9.2,-,N/A,,Clear,230,2012-10-07 02:15:00
8:35 PM,52.2,-2.4,11,30.10,10.0,WSW,6.9,-,N/A,,Clear,240,2012-10-07 02:35:00
8:55 PM,53.4,-5.4,9,30.10,10.0,SW,6.9,-,N/A,,Clear,230,2012-10-07 02:55:00
9:15 PM,53.1,-5.4,9,30.10,10.0,WSW,6.9,-,N/A,,Clear,240,2012-10-07 03:15:00
9:35 PM,52.0,-4.5,10,30.11,10.0,WSW,5.8,-,N/A,,Clear,250,2012-10-07 03:35:00
9:55 PM,53.2,-5.6,9,30.10,10.0,WSW,5.8,-,N/A,,Clear,240,2012-10-07 03:55:00
10:15 PM,52.5,-6.7,9,30.11,10.0,SW,4.6,-,N/A,,Clear,230,2012-10-07 04:15:00
10:35 PM,52.2,-4.7,10,30.10,10.0,Calm,Calm,-,N/A,,Clear,0,2012-10-07 04:35:00
10:55 PM,46.9,-0.6,14,30.10,10.0,South,5.8,-,N/A,,Clear,190,2012-10-07 04:55:00
11:15 PM,45.1,0.1,15,30.10,10.0,Calm,Calm,-,N/A,,Clear,0,2012-10-07 05:15:00
11:35 PM,45.0,-2.0,14,30.10,10.0,NE,3.5,-,N/A,,Clear,50,2012-10-07 05:35:00
11:55 PM,45.1,-4.0,13,30.09,10.0,NNE,4.6,-,N/A,,Clear,20,2012-10-07 05:55:00